Tracking 30986 objects as of 9-Jul-2025
HD Live streaming from Space Station
objects crossing your sky now

CZ-6A DEB

Track CZ-6A DEB now!
10-day predictions


NORAD ID: 54881
Int'l Code: 2022-151PS
Perigee: 625.0 km
Apogee: 767.2 km
Inclination: 98.4 °
Period: 98.5 minutes
Semi major axis: 7067 km
RCS: Unknown
Launch date: November 11, 2022
Source: People's Republic of China (PRC)
Launch site: Taiyaun Space Center, China (TSC)

Note: This is SATELLITE DEBRIS
Your satellite tracking list
Your tracking list is empty




NASA's NSSDC Master Catalog

Two Line Element Set (TLE):
1 54881U 22151PS  25190.01231257  .00003699  00000-0  70758-3 0  9992
2 54881  98.4311 208.0440 0100632 242.3730 116.7226 14.61296345138609
Source of the keplerian elements: AFSPC